Location: Wiesbaden
(50.0830°N, 8.2500°E)
Time: 05:33:59
(UTC+02:00)

ISS - Pass Details

Date: 04 April 2020
Orbit: 417 x 423 km, 51.6° (Epoch: 29 March)

Event Time Altitude Azimuth Distance (km) Brightness Sun altitude
Rises 21:48:42 0° 278° (W) 2,361 1.3 -16.4°
Reaches altitude 10° 21:52:23 10° 236° (WSW) 1,492 -0.7 -16.9°
Maximum altitude 21:53:02 10° 225° (SW) 1,466 -0.9 -17.0°
Drops below altitude 10° 21:53:41 10° 214° (SW) 1,491 -1.0 -17.1°
Enters shadow 21:54:39 - 199° (SSW) 1,617 -0.9 -17.2°
